| time (UTC) | temp F | wind direction | speed MPH | gust MPH | rain 1hr in | rain 24hr in | rain mn in | humidity % | barometer mb |
| 20260903020003 | 70 | 310 | 0.0 | 3.0 | 0.00 | 0.02 | 0.02 | 95 | 1015.6 |
| 20260903015003 | 70 | 355 | 0.0 | 1.0 | 0.00 | 0.02 | 0.02 | 95 | 1016.0 |
| 20260903014003 | 70 | 355 | 0.0 | 3.0 | 0.00 | 0.02 | 0.02 | 94 | 1016.4 |
| 20260903013003 | 71 | 356 | 0.0 | 2.0 | 0.00 | 0.02 | 0.02 | 95 | 1016.0 |
| 20260903012214 | 71 | 355 | 0.0 | 3.0 | 0.00 | 0.02 | 0.02 | 94 | 1016.1 |
| 20260903011003 | 71 | 354 | 0.0 | 3.0 | 0.00 | 0.02 | 0.02 | 94 | 1015.8 |
| 20260903010214 | 71 | 0 | 0.0 | 0.0 | 0.00 | 0.02 | 0.02 | 95 | 1015.6 |
| 20260903005003 | 71 | 309 | 0.0 | 1.0 | 0.00 | 0.02 | 0.02 | 95 | 1015.1 |
| 20260903004003 | 71 | 311 | 0.0 | 4.0 | 0.00 | 0.02 | 0.02 | 94 | 1015.1 |
| 20260903003003 | 71 | 0 | 0.0 | 0.0 | 0.00 | 0.02 | 0.02 | 95 | 1015.1 |
| 20260903002003 | 71 | 0 | 0.0 | 0.0 | 0.00 | 0.02 | 0.02 | 95 | 1015.0 |
| 20260903001003 | 71 | 0 | 0.0 | 0.0 | 0.00 | 0.02 | 0.02 | 95 | 1015.3 |
| 20260903000003 | 72 | 0 | 0.0 | 0.0 | 0.00 | 0.02 | 0.02 | 95 | 1015.4 |
| 20260902235003 | 72 | 0 | 0.0 | 0.0 | 0.00 | 0.02 | 0.02 | 95 | 1015.4 |
| 20260902234003 | 72 | 0 | 0.0 | 0.0 | 0.00 | 0.02 | 0.02 | 94 | 1015.2 |
| 20260902233003 | 72 | 0 | 0.0 | 0.0 | 0.00 | 0.02 | 0.02 | 94 | 1015.0 |
| 20260902232003 | 72 | 0 | 0.0 | 0.0 | 0.00 | 0.02 | 0.02 | 94 | 1014.8 |
| 20260902231003 | 72 | 0 | 0.0 | 0.0 | 0.00 | 0.02 | 0.02 | 94 | 1014.7 |
| 20260902230003 | 73 | 0 | 0.0 | 0.0 | 0.00 | 0.02 | 0.02 | 94 | 1014.8 |
| 20260902225003 | 73 | 0 | 0.0 | 0.0 | 0.00 | 0.02 | 0.02 | 94 | 1014.9 |
| 20260902224003 | 73 | 0 | 0.0 | 0.0 | 0.00 | 0.02 | 0.02 | 94 | 1014.9 |
| 20260902223003 | 73 | 0 | 0.0 | 0.0 | 0.00 | 0.02 | 0.02 | 94 | 1015.1 |
| 20260902222004 | 74 | 0 | 0.0 | 0.0 | 0.00 | 0.02 | 0.02 | 94 | 1015.0 |
| 20260902221213 | 74 | 0 | 0.0 | 0.0 | 0.00 | 0.02 | 0.02 | 93 | 1015.2 |
| 20260902220003 | 74 | 0 | 0.0 | 0.0 | 0.00 | 0.02 | 0.02 | 94 | 1015.3 |
| 20260902215213 | 75 | 0 | 0.0 | 0.0 | 0.00 | 0.02 | 0.02 | 93 | 1015.3 |
| 20260902214003 | 75 | 0 | 0.0 | 0.0 | 0.00 | 0.02 | 0.02 | 93 | 1015.4 |
| 20260902213003 | 75 | 0 | 0.0 | 0.0 | 0.00 | 0.02 | 0.02 | 93 | 1015.4 |
| 20260902212003 | 75 | 318 | 0.0 | 1.0 | 0.00 | 0.02 | 0.02 | 93 | 1015.5 |
| 20260902211003 | 75 | 327 | 0.0 | 4.0 | 0.00 | 0.02 | 0.02 | 93 | 1015.4 |
| 20260902210214 | 74 | 0 | 0.0 | 0.0 | 0.00 | 0.02 | 0.02 | 94 | 1015.4 |
| 20260902205003 | 74 | 0 | 0.0 | 0.0 | 0.00 | 0.02 | 0.02 | 94 | 1015.5 |
| 20260902204003 | 74 | 0 | 0.0 | 0.0 | 0.00 | 0.02 | 0.02 | 94 | 1015.4 |
| 20260902203214 | 74 | 0 | 0.0 | 0.0 | 0.00 | 0.02 | 0.02 | 94 | 1015.2 |
| 20260902202003 | 74 | 0 | 0.0 | 0.0 | 0.00 | 0.02 | 0.02 | 94 | 1015.5 |
| 20260902201003 | 75 | 0 | 0.0 | 2.0 | 0.00 | 0.02 | 0.02 | 93 | 1015.6 |
| 20260902200214 | 75 | 52 | 0.0 | 3.0 | 0.00 | 0.02 | 0.02 | 94 | 1015.6 |
| 20260902195003 | 74 | 54 | 0.0 | 2.0 | 0.00 | 0.02 | 0.02 | 94 | 1016.0 |
| 20260902194003 | 74 | 0 | 0.0 | 0.0 | 0.00 | 0.02 | 0.02 | 95 | 1015.9 |
| 20260902193214 | 74 | 0 | 0.0 | 0.0 | 0.00 | 0.02 | 0.02 | 95 | 1015.9 |
| 20260902192004 | 73 | 68 | 0.0 | 2.0 | 0.00 | 0.02 | 0.02 | 94 | 1016.1 |
| 20260902191003 | 74 | 67 | 0.0 | 2.0 | 0.00 | 0.02 | 0.02 | 95 | 1016.2 |
| 20260902190214 | 74 | 52 | 0.0 | 3.0 | 0.00 | 0.02 | 0.02 | 94 | 1016.4 |
| 20260902185003 | 74 | 7 | 1.0 | 2.0 | 0.00 | 0.02 | 0.02 | 94 | 1016.2 |
| 20260902184003 | 73 | 11 | 0.0 | 2.0 | 0.00 | 0.02 | 0.02 | 94 | 1015.9 |
| 20260902183003 | 73 | 11 | 1.0 | 3.0 | 0.00 | 0.02 | 0.02 | 95 | 1016.0 |
| 20260902182004 | 72 | 21 | 0.0 | 3.0 | 0.00 | 0.02 | 0.02 | 96 | 1016.2 |
| 20260902181003 | 72 | 19 | 1.0 | 4.0 | 0.00 | 0.02 | 0.02 | 97 | 1016.5 |
| 20260902180005 | 71 | 358 | 1.0 | 4.0 | 0.00 | 0.02 | 0.02 | 97 | 1016.9 |
| 20260902175003 | 71 | 324 | 0.0 | 2.0 | 0.00 | 0.02 | 0.02 | 97 | 1017.0 |
| 20260902174003 | 71 | 324 | 0.0 | 2.0 | 0.00 | 0.02 | 0.02 | 97 | 1017.0 |
| 20260902173003 | 71 | 322 | 0.0 | 2.0 | 0.00 | 0.02 | 0.02 | 97 | 1017.3 |
| 20260902172004 | 71 | 321 | 0.0 | 2.0 | 0.00 | 0.02 | 0.02 | 97 | 1017.2 |
| 20260902171003 | 71 | 321 | 0.0 | 1.0 | 0.00 | 0.02 | 0.02 | 97 | 1017.3 |
| 20260902170213 | 71 | 321 | 0.0 | 2.0 | 0.00 | 0.02 | 0.02 | 97 | 1017.5 |
| 20260902165003 | 70 | 321 | 0.0 | 2.0 | 0.01 | 0.02 | 0.02 | 97 | 1017.3 |
| 20260902164003 | 70 | 321 | 0.0 | 2.0 | 0.01 | 0.02 | 0.02 | 96 | 1017.2 |
| 20260902163003 | 70 | 320 | 0.0 | 1.0 | 0.02 | 0.02 | 0.02 | 97 | 1017.1 |
| 20260902162003 | 71 | 8 | 1.0 | 3.0 | 0.02 | 0.02 | 0.02 | 97 | 1017.2 |
| 20260902161003 | 71 | 55 | 0.0 | 3.0 | 0.02 | 0.02 | 0.02 | 97 | 1016.9 |
| 20260902160005 | 71 | 0 | 0.0 | 0.0 | 0.02 | 0.02 | 0.02 | 97 | 1017.5 |
| 20260902155003 | 71 | 10 | 1.0 | 2.0 | 0.01 | 0.01 | 0.01 | 97 | 1017.3 |
| 20260902154003 | 71 | 10 | 0.0 | 2.0 | 0.01 | 0.01 | 0.01 | 97 | 1017.2 |
| 20260902153003 | 71 | 11 | 0.0 | 3.0 | 0.00 | 0.00 | 0.00 | 97 | 1017.3 |
| 20260902152003 | 71 | 11 | 1.0 | 4.0 | 0.00 | 0.00 | 0.00 | 97 | 1017.3 |
| 20260902151214 | 71 | 356 | 0.0 | 4.0 | 0.00 | 0.00 | 0.00 | 97 | 1017.4 |
| 20260902150003 | 71 | 340 | 0.0 | 4.0 | 0.00 | 0.00 | 0.00 | 97 | 1017.2 |
| 20260902145003 | 71 | 355 | 0.0 | 2.0 | 0.00 | 0.00 | 0.00 | 97 | 1017.2 |
| 20260902144003 | 71 | 355 | 0.0 | 1.0 | 0.00 | 0.00 | 0.00 | 97 | 1017.2 |
| 20260902143003 | 72 | 355 | 0.0 | 1.0 | 0.00 | 0.00 | 0.00 | 97 | 1017.4 |
| 20260902142214 | 72 | 355 | 0.0 | 1.0 | 0.00 | 0.00 | 0.00 | 97 | 1017.4 |
| 20260902141003 | 72 | 355 | 0.0 | 2.0 | 0.00 | 0.00 | 0.00 | 97 | 1017.4 |
| 20260902140003 | 72 | 355 | 0.0 | 1.0 | 0.00 | 0.00 | 0.00 | 97 | 1017.3 |
| 20260902135003 | 72 | 355 | 0.0 | 1.0 | 0.00 | 0.00 | 0.00 | 97 | 1017.1 |
| 20260902134003 | 72 | 355 | 0.0 | 1.0 | 0.00 | 0.00 | 0.00 | 98 | 1017.2 |
| 20260902133003 | 72 | 355 | 0.0 | 1.0 | 0.00 | 0.00 | 0.00 | 98 | 1017.0 |
| 20260902132003 | 72 | 355 | 1.0 | 3.0 | 0.00 | 0.00 | 0.00 | 98 | 1016.9 |
| 20260902131003 | 72 | 355 | 0.0 | 2.0 | 0.00 | 0.00 | 0.00 | 98 | 1016.9 |
| 20260902130213 | 72 | 355 | 0.0 | 2.0 | 0.00 | 0.00 | 0.00 | 98 | 1016.6 |
| 20260902125003 | 71 | 342 | 0.0 | 3.0 | 0.00 | 0.00 | 0.00 | 98 | 1016.5 |
| 20260902124003 | 71 | 355 | 0.0 | 4.0 | 0.00 | 0.00 | 0.00 | 98 | 1016.4 |